Location: Roc des P�zouls
(43.9667°N, 3.5500°E)
Time: 06:57:38
(UTC+00:00)

Cosmos 2360 - Pass Details

Date: 14 November 2019
Orbit: 845 x 857 km, 70.8° (Epoch: 08 December)

Event Time Altitude Azimuth Distance (km) Brightness Sun altitude
Exits shadow 04:31:13 34° 327° (NNW) 1,374 5.0 -23.0°
Maximum altitude 04:33:48 77° 247° (WSW) 882 4.1 -22.5°
Drops below altitude 10° 04:39:30 10° 162° (SSE) 2,482 6.9 -21.5°
Sets 04:41:57 0° 161° (SSE) 3,414 7.7 -21.0°
